User: anonymous
Location: Unspecified
(0.0000°N, 0.0000°E)
Time: 05:30:42
(UTC+00:00)
Language:

USA 207 - Orbit

View from above orbital plane
View from above orbital plane
View from above satellite
View from above satellite

Ground track
Ground track

The orbit data is extracted from the following two-line orbital elements,

1 35815U 09047A   14254.94496518 0.00000000  00000-0  00000-0 0    07
2 35815   0.0260  18.6337 0010353 208.7623 151.1918  1.00270000    06
Epoch (UTC): 11 September 2014 22:40:44
Eccentricity: 0.0010353
inclination: 0.0260°
perigee height: 35743 km
apogee height: 35830 km
right ascension of ascending node: 18.6337°
argument of perigee: 208.7623°
revolutions per day: 1.00270000
mean anomaly at epoch: 151.1918°
orbit number at epoch: 0

The dashed part of the orbit path shows where the satellite is in the earth's shadow,  

DLR